Location: Moscow
(55.7500°N, 37.5830°E)
Time: 11:23:49
(UTC+03:00)

Explorer 7 - Pass Details

Date: 09 December 2021
Orbit: 483 x 674 km, 50.3° (Epoch: 19 January)

Event Time Altitude Azimuth Distance (km) Brightness Sun altitude
Rises 03:38:17 0° 191° (S) 2,893 - -41.3°
Reaches altitude 10° 03:42:28 10° 155° (SSE) 1,937 - -40.8°
Maximum altitude 03:43:31 11° 141° (SE) 1,873 - -40.6°
Drops below altitude 10° 03:44:39 10° 126° (SE) 1,915 - -40.5°
Exits shadow 03:46:52 - 102° (ESE) 2,292 10.6 -40.2°
Sets 03:48:33 0° 89° (E) 2,753 11.2 -40.0°
